Regional Weather Roundup
Issued by NWS

Home | Current Version | Previous Version | Text Only | Print | Product List | Glossary On
Versions: 1 2 3 4 5 6 7 8 9 10 11 12 13 14 15 16 17 18 19 20 21 22 23 24 25 26 27 28 29 30 31 32 33 34 35 36 37 38 39 40 41 42 43 44 45 46 47 48 49 50
000
ASUS46 KLOX 251512
RWRCA

SOUTHERN CALIFORNIA WEATHER ROUNDUP
NATIONAL WEATHER SERVICE OXNARD CALIFORNIA
800 AM PDT FRI JUL 25 2014

NOTE: "FAIR" INDICATES FEW OR NO CLOUDS BELOW 12,000 FEET WITH NO
SIGNIFICANT WEATHER AND/OR OBSTRUCTIONS TO VISIBILITY.

  -  STATIONS PRECEEDED BY AN ASTERISK (*) ARE NOT NWS OR FAA
     STATIONS AND ARE NOT SUBJECT TO NWS AND FAA QUALITY CONTROL.

CAZ041-042-087-251600-
LA AND ORANGE COUNTY COASTAL AREAS


CITY           SKY/WX    TMP DP  RH WIND       PRES   REMARKS
L.A. DOWNTOWN  PTSUNNY   72  64  76 CALM      29.88S
L.A. AIRPORT   PTSUNNY   73  64  73 E9        29.89R
LONG BEACH     CLOUDY    72  65  78 E9        29.88R

CITY           SKY/WX    TMP DP  RH WIND       PRES   REMARKS
AVALON           N/A     70 N/A N/A S5          N/A
FULLERTON      CLOUDY    74  64  71 CALM      29.88R
*GETTY CENTER    N/A     64  63  94 SE3         N/A
HAWTHORNE      CLOUDY    72  65  78 SE7       29.89R
*LOS ALAMITOS  CLOUDY    72  65  79 S5        29.89R
*REDONDO BEACH   N/A     71  65  81 SE1       29.88R
SANTA ANA      PTSUNNY   74  64  71 S6        29.88R
STA MONICA APT PTSUNNY   73  63  68 E7        29.90R
TORRANCE       PTSUNNY   73  68  83 SE12      29.89R FOG
*UCLA            N/A     70  63  78 NE1       29.87S

$$

CAZ547-548-048-251600-
LA COUNTY VALLEYS AND INLAND EMPIRE


CITY           SKY/WX    TMP DP  RH WIND       PRES   REMARKS
BURBANK        SUNNY     70  62  76 S3        29.90R
VAN NUYS       SUNNY     72  61  68 E3        29.90R

CITY           SKY/WX    TMP DP  RH WIND       PRES   REMARKS
CORONA AIRPORT MOSUNNY   69  64  84 NW3       29.91R
CHINO          MOSUNNY   70  65  84 CALM      29.92R
*CLAREMONT       N/A     78  51  38 CALM        N/A
MARCH AFB      PTSUNNY   72  60  66 SE2       29.93R
*NORTHRIDGE      N/A     73  59  60 S2          N/A
ONTARIO        MOSUNNY   71  62  73 CALM      29.91R
*PASADENA        N/A     73  66  78 CALM        N/A
POMONA         SUNNY     68  63  83 CALM      29.93S
RIVERSIDE      MOSUNNY   70  63  78 VRB3      29.91R
SAN BERNARDINO MOSUNNY   72  57  60 CALM      29.92R
*SAN GABRIEL     N/A     71  64  79 CALM      29.85S
*WHITEMAN AP   SUNNY     72  57  60 CALM      29.94
*WOODLAND HILL   N/A    N/A N/A N/A NE2         N/A

$$

CAZ054-055-251600-
LA AND SAN BERNARDINO COUNTY MOUNTAINS


CITY           SKY/WX    TMP DP  RH WIND       PRES   REMARKS
*ACTON           N/A     62  41  46 CALM        N/A
*BIG BEAR AIRP PTSUNNY   72  37  28 CALM      30.28R
*BIG PINES       N/A     73  21  14 SW2         N/A
*CHILAO          N/A     82   0   4 SE6         N/A
MT WILSON NWS    N/A     77   5   6 MISG        N/A
SANDBERG       SUNNY     75  39  27 S12       30.08R
*WARM SPRINGS    N/A     76  46  34 CALM        N/A

$$

CAZ028-029-059-060-099-251600-
ANTELOPE VALLEY AND SURROUNDING AREAS


CITY           SKY/WX    TMP DP  RH WIND       PRES   REMARKS
LANCASTER      SUNNY     84  41  21 NW13      29.92R
PALMDALE       SUNNY     81  40  23 CALM      29.94R

CITY           SKY/WX    TMP DP  RH WIND       PRES   REMARKS
29 PALMS       CLOUDY    89  46  22 NE5       29.96R
BARSTOW/DAGGET MOSUNNY   88  32  13 W14       29.90R
BISHOP         MOSUNNY   72  24  16 NW3       30.01R
CHINA LAKE     MOSUNNY   82  35  18 N7        29.89S
EDWARDS AFB    MOSUNNY   78  40  25 S5        29.91R
MOJAVE         FAIR      75  39  27 CALM      29.95R
NEEDLES        CLOUDY    98  57  25 S8        29.84R HX  97
VICTORVILLE    SUNNY     81  32  17 CALM      29.97S

$$

CAZ039-040-251600-
VENTURA AND SANTA BARBARA COUNTY COAST


CITY           SKY/WX    TMP DP  RH WIND       PRES   REMARKS
CAMARILLO      SUNNY     68  59  73 NW6       29.88R
NWS OXNARD       N/A     67  61  81 NW3       29.88R
OXNARD AIRPORT MOSUNNY   66  62  87 NW6       29.88R FOG
*POINT MUGU    MOSUNNY   71  62  73 CALM      29.88R
SBA APT/GOLETA SUNNY     68  61  78 E5        29.88R
*SANTA BARBARA   N/A     68  61  79 CALM      29.96R
*VENTURA         N/A     66  62  88 CALM      29.93R

$$

CAZ044-045-251600-
VENTURA COUNTY VALLEYS


CITY           SKY/WX    TMP DP  RH WIND       PRES   REMARKS
*SIMI VALLEY     N/A     75  60  60 CALM      29.81S
*OJAI            N/A     72  60  67 CALM      29.82S
*FILLMORE        N/A     66  63  91 CALM      29.78S

$$

CAZ053-251600-
VENTURA COUNTY MOUNTAINS


CITY           SKY/WX    TMP DP  RH WIND       PRES   REMARKS
*LOCKWOOD VLY    N/A     63  28  27 MISG        N/A
*ROSE VALLEY     N/A     61  43  51 MISG        N/A

$$

CAZ034-035-036-251600-
CENTRAL COAST AND SANTA YNEZ VALLEY


CITY           SKY/WX    TMP DP  RH WIND       PRES   REMARKS
SAN LUIS OBISP CLOUDY    57  57 100 S3        29.90R FOG
SANTA MARIA    CLOUDY    62  57  83 S6        29.90R FOG

CITY           SKY/WX    TMP DP  RH WIND       PRES   REMARKS
*CAL POLY SLO    N/A     57  57 100 CALM        N/A
*CAMBRIA         N/A     58  57  96 W1        29.78S
*LOMPOC          N/A     61  55  82 SW5       29.91R
*PISMO BEACH     N/A     61  58  91 CALM      29.90R

$$

CAZ037-038-051-251600-
SAN LUIS OBISPO COUNTY INTERIOR AND CUYAMA VALLEY


CITY           SKY/WX    TMP DP  RH WIND       PRES   REMARKS
*CUYAMA          N/A     70  46  42 E3        29.82S
PASO ROBLES    SUNNY     68  49  50 CALM      29.89R

$$

CAZ032-033-061-251600-
SOUTHERN DESERTS


CITY           SKY/WX    TMP DP  RH WIND       PRES   REMARKS
BLYTHE         SUNNY     94  60  32 S14       29.83R HX  94
IMPERIAL       SUNNY     90  73  57 SE14      29.77R HX  98
PALM SPRINGS   PTSUNNY   92  49  22 NW8       29.86R
THERMAL        CLOUDY    93  74  53 SE8       29.79R HX 103

$$

ELSEWHERE ACROSS THE WESTERN UNITED STATES AND MEXICO


CITY           SKY/WX    TMP DP  RH WIND       PRES   REMARKS
DENVER, CO     PTSUNNY   86  46  24 VRB3      30.12R
GRAND CANYON,  MOSUNNY   73  51  46 CALM      30.33R
HONOLULU, HI   PTCLDY    77  64  65 NE7       29.97S
KAHULUI, MAUI  CLEAR     64  63  94 SE6       29.97F
LAKE TAHOE, CA SUNNY     54  39  57 CALM      30.18S
LAS VEGAS, NV  PTSUNNY   94  47  20 S10       29.85R HX  90
MAMMOTH LAKES, FAIR      57  19  23 CALM      30.24R
MEXICO CITY, M PTSUNNY   59  54  82 E6        30.41R
PHOENIX, AZ    MOSUNNY   93  65  39 SE9       29.91R HX  95
PORTLAND, OR   PTSUNNY   57  53  86 CALM      30.16S
RENO, NV       MOSUNNY   68  38  33 CALM      30.09R
SALT LAKE CITY MOSUNNY   73  42  32 CALM      30.05R
SAN DIEGO, CA  CLOUDY    70  63  78 SW3       29.90R
SAN FRANCISCO, MOSUNNY   67  58  72 CALM      29.88R
SAN JOSE, CA   MOSUNNY   65  57  75 CALM      29.88R
SEATTLE, WA    MOSUNNY   59  53  80 CALM      30.18S
TIJUANA, MEX   PTSUNNY   70  63  78 NW6       29.91R

$$

STATION/POSITION TIME  TEMP    WIND        PRES    VSBY  WAVE
                       AIR SEA DIR/SP/G                  HT/PER
                 (UTC) (F)     (DEG/KT/KT) (MB)    (MI)  (FT/S)
POINT ARGUELLO B NOT AVBL
WEST SANTA BARBA 1500   59 57  330/ 14/ 16 1011.4R         7/ 9
POINT CONCEPTION NOT AVBL
EAST SANTA BARBA 1500   62 64  230/  8/  8 1012.1R
SANTA MONICA BAY 1500   67 67   80/  8/ 10 1011.2R         3/ 6


USA.gov is the U.S. government's official web portal to all federal, state and local government web resources and services.